TimeCDT,TemperatureF,Dew PointF,Humidity,Sea Level PressureIn,VisibilityMPH,Wind Direction,Wind SpeedMPH,Gust SpeedMPH,PrecipitationIn,Events,Conditions,WindDirDegrees,DateUTC
12:53 AM,42.1,39.0,89,30.19,10.0,WSW,3.5,-,N/A,,Clear,240,2011-10-03 05:53:00
1:53 AM,42.8,37.4,81,30.20,10.0,Calm,Calm,-,N/A,,Clear,0,2011-10-03 06:53:00
2:53 AM,39.9,37.0,89,30.19,10.0,WSW,3.5,-,N/A,,Clear,240,2011-10-03 07:53:00
3:53 AM,43.0,39.0,86,30.20,10.0,WSW,4.6,-,N/A,,Clear,250,2011-10-03 08:53:00
4:53 AM,39.9,37.0,89,30.20,10.0,WSW,3.5,-,N/A,,Clear,250,2011-10-03 09:53:00
5:53 AM,41.0,37.4,87,30.22,10.0,Calm,Calm,-,N/A,,Clear,0,2011-10-03 10:53:00
6:53 AM,41.0,37.9,89,30.24,10.0,Calm,Calm,-,N/A,,Clear,0,2011-10-03 11:53:00
7:53 AM,46.9,43.0,86,30.25,7.0,Calm,Calm,-,N/A,,Clear,0,2011-10-03 12:53:00
8:53 AM,55.9,46.0,69,30.26,10.0,WNW,3.5,-,N/A,,Clear,290,2011-10-03 13:53:00
9:53 AM,62.1,44.1,52,30.27,10.0,WNW,5.8,-,N/A,,Clear,300,2011-10-03 14:53:00
10:53 AM,68.0,41.0,37,30.26,10.0,Calm,Calm,-,N/A,,Clear,0,2011-10-03 15:53:00
11:53 AM,70.0,39.0,32,30.25,10.0,WNW,6.9,-,N/A,,Clear,290,2011-10-03 16:53:00
12:53 PM,71.6,35.6,27,30.23,10.0,Calm,Calm,-,N/A,,Clear,0,2011-10-03 17:53:00
1:53 PM,73.9,39.0,28,30.20,10.0,WNW,8.1,-,N/A,,Clear,290,2011-10-03 18:53:00
2:53 PM,73.4,37.4,27,30.19,10.0,Variable,3.5,-,N/A,,Clear,0,2011-10-03 19:53:00
3:53 PM,75.9,39.9,27,30.17,10.0,West,5.8,-,N/A,,Clear,260,2011-10-03 20:53:00
4:53 PM,73.9,39.9,29,30.17,10.0,WSW,5.8,-,N/A,,Clear,250,2011-10-03 21:53:00
5:53 PM,72.0,37.9,29,30.18,10.0,West,4.6,-,N/A,,Clear,280,2011-10-03 22:53:00
6:53 PM,60.1,45.0,57,30.19,10.0,SW,3.5,-,N/A,,Clear,230,2011-10-03 23:53:00
7:53 PM,55.4,46.4,72,30.19,10.0,Calm,Calm,-,N/A,,Clear,0,2011-10-04 00:53:00
8:53 PM,52.0,46.0,80,30.20,10.0,Calm,Calm,-,N/A,,Clear,0,2011-10-04 01:53:00
9:53 PM,50.0,45.0,83,30.21,10.0,Calm,Calm,-,N/A,,Clear,0,2011-10-04 02:53:00
10:53 PM,48.9,45.0,86,30.21,10.0,Calm,Calm,-,N/A,,Clear,0,2011-10-04 03:53:00
11:53 PM,48.0,44.1,86,30.21,10.0,Calm,Calm,-,N/A,,Clear,0,2011-10-04 04:53:00